1309910433975,37.6723
1309910493975,37.9352
1309910553975,37.8433
1309910613975,37.8300
1309910673975,37.7638
1309910733975,37.8180
1309910793975,37.8381
1309910853975,37.7827
1309910913975,37.8099
1309910973975,37.6455
1309911033975,37.7714
1309911093975,37.7703
1309911153975,37.8180
1309911213975,37.7406
1309911273975,37.6152
1309911333975,37.5587
1309911393975,37.6473
1309911453975,37.6686
1309911513975,37.7027
1309911573975,37.6850
1309911633975,37.5939
1309911693975,37.5819
1309911753975,37.6281
1309911813975,37.5081
1309911873975,37.5811
1309911933975,37.5368
1309911993975,37.5881
1309912053975,37.5803
1309912113975,37.6352
1309912173975,37.5814
1309912233975,37.5575
1309912293975,37.4841
1309912353975,37.5196
1309912413975,37.5492
1309912473975,37.5791
1309912533975,37.5416
1309912593975,37.4541
1309912653975,37.5134
1309912713975,37.5006
1309912773975,37.4297
1309912833975,37.4818
1309912893975,37.3939
1309912953975,37.5623
1309913013975,37.4313
1309913073975,37.4813
1309913133975,37.5821
1309913193975,37.5352
1309913253975,37.5342
1309913313975,37.4145
1309913373975,37.4495
1309913433975,37.4334
1309913493975,37.3950
1309913553975,37.5154
1309913613975,37.3893
1309913673975,37.5247
1309913733975,37.3653
1309913793975,37.3699
1309913853975,37.4439
1309913913975,37.4286
1309913973975,37.3782
1309914033985,37.2153
1309914093985,37.4285
1309914153985,37.3495
1309914213985,37.3173
1309914273985,37.3782
1309914333985,37.2794
1309914393985,37.3797
1309914453985,37.4079
1309914513985,37.3942
1309914573985,37.2303
1309914633985,37.3375
1309914693985,37.3588
1309914753985,37.2174
1309914813985,37.2761
1309914873985,37.2140
1309914933985,37.4823
1309914993985,37.3432
1309915053985,37.3639
1309915113985,37.2778
1309915173985,37.2242
1309915233985,37.3050
1309915293985,37.3025
1309915353985,37.3531
1309915413985,37.2074
1309915473985,37.1824
1309915533985,37.3080
1309915593985,37.2521
1309915653985,37.2117
1309915713985,37.2430
1309915773985,37.1737
1309915833985,37.3290
1309915893985,37.4125
1309915953985,37.4249
1309916013985,37.3305
1309916073985,37.2964
1309916133985,37.3415
1309916193985,37.3591
1309916253985,37.3339
1309916313985,37.4166
1309916373985,37.4334
1309916433985,37.3073
1309916493985,37.2927
1309916553985,37.2418
1309916613985,37.3159
1309916673985,37.4143
1309916733985,37.3203
1309916793985,37.2832
1309916853985,37.2490
1309916913985,37.4276
1309916973985,37.5087
1309917033985,37.3205
1309917093985,37.3922
1309917153985,37.2832
1309917213985,37.3125
1309917273985,37.4298
1309917333985,37.3445
1309917393985,37.2688
1309917453985,37.2281
1309917513985,37.1982
1309917573985,37.2654
1309917633995,37.2791
1309917693995,37.3638
1309917753995,37.3136
1309917813995,37.2950
1309917873995,37.2821
1309917933995,37.2765
1309917993995,37.2909
1309918053995,37.2726
1309918113995,37.3822
1309918173995,37.4026
1309918233995,37.3747
1309918293995,37.4504
1309918353995,37.4466
1309918413995,37.4484
1309918473995,37.4517
1309918533995,37.5359
1309918593995,37.4576
1309918653995,37.4443
1309918713995,37.4073
1309918773995,37.3886
1309918833995,37.4482
1309918893995,37.4986
1309918953995,37.3828
1309919013995,37.3689
1309919073995,37.3584
1309919133995,37.3704
1309919193995,37.4227
1309919253995,37.4779
1309919313995,37.4696
1309919373995,37.4414
1309919433995,37.4801
1309919493995,37.4986
1309919553995,37.4741
1309919613995,37.4827
1309919673995,37.5895
1309919733995,37.5778
1309919793995,37.5385
1309919853995,37.5554
1309919913995,37.6398
1309919973995,37.5984
1309920033995,37.5864
1309920093995,37.6400
1309920153995,37.4658
1309920213995,37.5195
1309920273995,37.6855
1309920333995,37.4949
1309920393995,37.4809
1309920453995,37.5369
1309920513995,37.5288
1309920573995,37.5555
1309920633995,37.5272
1309920693995,37.6796
1309920753995,37.5255
1309920813995,37.4854
1309920873995,37.6191
1309920933995,37.5602
1309920993995,37.5980
1309921053995,37.5968
1309921113995,37.5504
1309921173995,37.5202
1309921234004,37.5317
1309921294004,37.5004
1309921354004,37.6188
1309921414004,37.5651
1309921474004,37.5619
1309921534004,37.6727
1309921594004,37.5286
1309921654004,37.6860
1309921714004,37.6157
1309921774004,37.5863
1309921834004,37.5751
1309921894004,37.5942
1309921954004,37.5256
1309922014004,37.6194
1309922074004,37.5070
1309922134004,37.5220
1309922194004,37.6837
1309922254004,37.5796
1309922314004,37.6295
1309922374004,37.7109
1309922434004,37.7446
1309922494004,37.5535
1309922554004,37.5372
1309922614004,37.6179
1309922674004,37.4664
1309922734004,37.6066
1309922794004,37.5563
1309922854004,37.6859
1309922914004,37.6440
1309922974004,37.5821
1309923034004,37.6064
1309923094004,37.7825
1309923154004,37.6385
1309923214004,37.5822
1309923274004,37.6595
1309923334004,37.6010
1309923394004,37.5805
1309923454004,37.5446
1309923514004,37.6375
1309923574004,37.5378
1309923634004,37.6973
1309923694004,37.5483
1309923754004,37.6052
1309923814004,37.6384
1309923874004,37.5634
1309923934004,37.6162
1309923994004,37.6267
1309924054004,37.5951
1309924114004,37.6024
1309924174004,37.6724
1309924234004,37.7518
1309924294004,37.6128
1309924354004,37.6940
1309924414004,37.7236
1309924474004,37.6537
1309924534004,37.6730
1309924594004,37.6897
1309924654004,37.6459
1309924714004,37.6697
1309924774004,37.5827
1309924834013,37.6813
1309924894013,37.6855
1309924954013,37.6435
1309925014013,37.6554
1309925074013,37.5760
1309925134013,37.5493
1309925194013,37.6749
1309925254013,37.8092
1309925314013,37.7597
1309925374013,37.6311
1309925434013,37.6416
1309925494013,37.6761
1309925554013,37.4982
1309925614013,37.6811
1309925674013,37.6257
1309925734013,37.5354
1309925794013,37.6003
1309925854013,37.5417
1309925914013,37.7444
1309925974013,37.5967
1309926034013,37.6669
1309926094013,37.7288
1309926154013,37.5999
1309926214013,37.5559
1309926274013,37.5599
1309926334013,37.6623
1309926394013,37.6628
1309926454013,37.6757
1309926514013,37.6043
1309926574013,37.4748
1309926634013,37.5183
1309926694013,37.6500
1309926754013,37.5873
1309926814013,37.5940
1309926874013,37.6519
1309926934013,37.6561
1309926994013,37.5664
1309927054013,37.5357
1309927114013,37.5862
1309927174013,37.6117
1309927234013,37.6437
1309927294013,37.5737
1309927354013,37.6450
1309927414013,37.5231
1309927474013,37.5475
1309927534013,37.4973
1309927594013,37.4970
1309927654013,37.5471
1309927714013,37.4399
1309927774013,37.4295
1309927834013,37.5355
1309927894013,37.5156
1309927954013,37.5668
1309928014013,37.3968
1309928074013,37.5103
1309928134013,37.4839
1309928194013,37.4498
1309928254013,37.4197
1309928314013,37.5463
1309928374013,37.4435
1309928434023,37.4858
1309928494023,37.4742
1309928554023,37.4484
1309928614023,37.3821
1309928674023,37.3086
1309928734023,37.3776
1309928794023,37.4427
1309928854023,37.3907
1309928914023,37.4068
1309928974023,37.3476
1309929034023,37.4370
1309929094023,37.3394
1309929154023,37.5331
1309929214023,37.2648
1309929274023,37.3851
1309929334023,37.4545
1309929394023,37.4859
1309929454023,37.4710
1309929514023,37.3223
1309929574023,37.3980
1309929634023,37.4898
1309929694023,37.4278
1309929754023,37.3379
1309929814023,37.4469
1309929874023,37.4128
1309929934023,37.4116
1309929994023,37.3455
1309930054023,37.3993
1309930114023,37.4532
1309930174023,37.5232
1309930234023,37.5303
1309930294023,37.6232
1309930354023,37.4617
1309930414023,37.5017
1309930474023,37.4217
1309930534023,37.4761
1309930594023,37.5030
1309930654023,37.4241
1309930714023,37.3613
1309930774023,37.3228
1309930834023,37.4319
1309930894023,37.5503
1309930954023,37.3967
1309931014023,37.5823
1309931074023,37.4834
1309931134023,37.4222
1309931194023,37.4187
1309931254023,37.3598
1309931314023,37.4368
1309931374023,37.3478
1309931434023,37.4383
1309931494023,37.6704
1309931554023,37.5177
1309931614023,37.5250
1309931674023,37.4737
1309931734023,37.4690
1309931794023,37.4608
1309931854023,37.5026
1309931914023,37.5077
1309931974023,37.5674
1309932034032,37.4342
1309932094032,37.5698
1309932154032,37.5711
1309932214032,37.5663
1309932274032,37.5219
1309932334032,37.4753
1309932394032,37.5060
1309932454032,37.5459
1309932514032,37.3919
1309932574032,37.4523
1309932634032,37.3841
1309932694032,37.5401
1309932754032,37.5117
1309932814032,37.4623
1309932874032,37.3634
1309932934032,37.3492
1309932994032,37.4847
1309933054032,37.4329
1309933114032,37.4967
1309933174032,37.4923
1309933234032,37.4523
1309933294032,37.4211
1309933354032,37.4356
1309933414032,37.5735
1309933474032,37.6336
1309933534032,37.5882
1309933594032,37.4490
1309933654032,37.4708
1309933714032,37.4691
1309933774032,37.4573
1309933834032,37.5430
1309933894032,37.5707
1309933954032,37.4795
1309934014032,37.4342
1309934074032,37.6272
1309934134032,37.4336
1309934194032,37.4758
1309934254032,37.4746
1309934314032,37.4896
1309934374032,37.5152
1309934434032,37.5871
1309934494032,37.4720
1309934554032,37.5558
1309934614032,37.6261
1309934674032,37.6147
1309934734032,37.5306
1309934794032,37.5779
1309934854032,37.4373
1309934914032,37.5821
1309934974032,37.4304
1309935034032,37.4453
1309935094032,37.5254
1309935154032,37.6121
1309935214032,37.6171
1309935274032,37.5746
1309935334032,37.5733
1309935394032,37.5552
1309935454032,37.6061
1309935514032,37.5696
1309935574032,37.6469
1309935634041,37.6577
1309935694041,37.6712
1309935754041,37.6573
1309935814041,37.6420
1309935874041,37.6566
1309935934041,37.6103
1309935994041,37.5832
1309936054041,37.6981
1309936114041,37.6418
1309936174041,37.4913
1309936234041,37.5669
1309936294041,37.6973
1309936354041,37.7356
1309936414041,37.6369
1309936474041,37.7116
1309936534041,37.7426
1309936594041,37.7368
1309936654041,37.5081
1309936714041,37.5949
1309936774041,37.6067
1309936834041,37.6154
1309936894041,37.6605
1309936954041,37.6499
1309937014041,37.6134
1309937074041,37.5377
1309937134041,37.6338
1309937194041,37.6391
1309937254041,37.4886
1309937314041,37.5404
1309937374041,37.7065
1309937434041,37.6929
1309937494041,37.6625
1309937554041,37.7408
1309937614041,37.6059
1309937674041,37.6201
1309937734041,37.7645
1309937794041,37.6618
1309937854041,37.5940
1309937914041,37.7567
1309937974041,37.6862
1309938034041,37.6977
1309938094041,37.7761
1309938154041,37.7132
1309938214041,37.6449
1309938274041,37.5980
1309938334041,37.6332
1309938394041,37.6662
1309938454041,37.6364
1309938514041,37.7424
1309938574041,37.7244
1309938634041,37.6766
1309938694041,37.7217
1309938754041,37.7102
1309938814041,37.7765
1309938874041,37.7572
1309938934041,37.7695
1309938994041,37.5941
1309939054041,37.6682
1309939114041,37.6786
1309939174041,37.6778
1309939234050,37.6034
1309939294050,37.6356
1309939354050,37.6574
1309939414050,37.6223
1309939474050,37.7133
1309939534050,37.6413
1309939594050,37.6208
1309939654050,37.6789
1309939714050,37.6651
1309939774050,37.5913
1309939834050,37.6673
1309939894050,37.6380
1309939954050,37.6336
1309940014050,37.6873
1309940074050,37.6808
1309940134050,37.6849
1309940194050,37.5606
1309940254050,37.5900
1309940314050,37.6922
1309940374050,37.6561
1309940434050,37.5242
1309940494050,37.5940
1309940554050,37.6431
1309940614050,37.6840
1309940674050,37.5702
1309940734050,37.5997
1309940794050,37.6307
1309940854050,37.5973
1309940914050,37.5835
1309940974050,37.6007
1309941034050,37.5279
1309941094050,37.5781
1309941154050,37.5763
1309941214050,37.4402
1309941274050,37.6029
1309941334050,37.5316
1309941394050,37.6407
1309941454050,37.5926
1309941514050,37.5966
1309941574050,37.4627
1309941634050,37.5634
1309941694050,37.4176
1309941754050,37.4789
1309941814050,37.6371
1309941874050,37.5804
1309941934050,37.5387
1309941994050,37.5784
1309942054050,37.6228
1309942114050,37.4826
1309942174050,37.5374
1309942234050,37.5095
1309942294050,37.6076
1309942354050,37.5014
1309942414050,37.5756
1309942474050,37.4481
1309942534050,37.4697
1309942594050,37.4715
1309942654050,37.4954
1309942714050,37.5418
1309942774050,37.5419
1309942834059,37.5972
1309942894059,37.5859
1309942954059,37.6399
1309943014059,37.5073
1309943074059,37.5575
1309943134059,37.6135
1309943194059,37.5557
1309943254059,37.6179
1309943314059,37.5932
1309943374059,37.7363
1309943434059,37.6173
1309943494059,37.6521
1309943554059,37.4995
1309943614059,37.4614
1309943674059,37.6259
1309943734059,37.6597
1309943794059,37.6396
1309943854059,37.4257
1309943914059,37.5817
1309943974059,37.6147
1309944034059,37.5320
1309944094059,37.5353
1309944154059,37.6382
1309944214059,37.6891
1309944274059,37.6200
1309944334059,37.6729
1309944394059,37.6147
1309944454059,37.5897
1309944514059,37.7404
1309944574059,37.5525
1309944634059,37.7240
1309944694059,37.6817
1309944754059,37.6726
1309944814059,37.6991
1309944874059,37.6308
1309944934059,37.6734
1309944994059,37.6173
1309945054059,37.6465
1309945114059,37.5617
1309945174059,37.6226
1309945234059,37.6387
1309945294059,37.6352
1309945354059,37.6169
1309945414059,37.6173
1309945474059,37.5583
1309945534059,37.6462
1309945594059,37.6999
1309945654059,37.6474
1309945714059,37.5121
1309945774059,37.6982
1309945834059,37.7128
1309945894059,37.6104
1309945954059,37.6970
1309946014059,37.6184
1309946074059,37.6292
1309946134059,37.7434
1309946194059,37.6321
1309946254059,37.6639
1309946314059,37.5766
1309946374059,37.6872
1309946434068,37.6956
1309946494068,37.6128
1309946554068,37.5529
1309946614068,37.5571
1309946674068,37.7495
1309946734068,37.6786
1309946794068,37.5500
1309946854068,37.6739
1309946914068,37.7303
1309946974068,37.7057
1309947034068,37.6734
1309947094068,37.6968
1309947154068,37.6427
1309947214068,37.7478
1309947274068,37.6194
1309947334068,37.6152
1309947394068,37.7265
1309947454068,37.7309
1309947514068,37.6305
1309947574068,37.5808
1309947634068,37.6608
1309947694068,37.7737
1309947754068,37.7092
1309947814068,37.6410
1309947874068,37.6477
1309947934068,37.7145
1309947994068,37.6681
1309948054068,37.5914
1309948114068,37.8225
1309948174068,37.7414
1309948234068,37.7394
1309948294068,37.7183
1309948354068,37.7409
1309948414068,37.7743
1309948474068,37.8599
1309948534068,37.7636
1309948594068,37.7849
1309948654068,37.7660
1309948714068,37.7238
1309948774068,37.7814
1309948834068,37.7044
1309948894068,37.8649
1309948954068,37.7896
1309949014068,37.9021
1309949074068,37.9064
1309949134068,37.8372
1309949194068,37.9255
1309949254068,37.9400
1309949314068,37.8819
1309949374068,37.9947
1309949434068,38.1678
1309949494068,37.9097
1309949554068,37.9978
1309949614068,37.9452
1309949674068,37.8675
1309949734068,37.8800
1309949794068,37.9014
1309949854068,37.9020
1309949914068,37.9442
1309949974068,37.9620
1309950034077,37.8877
1309950094077,37.9900
1309950154077,37.9734
1309950214077,38.0436
1309950274077,38.0279
1309950334077,37.9415
1309950394077,38.0110
1309950454077,37.9552
1309950514077,37.8208
1309950574077,37.8968
1309950634077,37.9268
1309950694077,37.9492
1309950754077,38.1036
1309950814077,37.9962
1309950874077,38.0801
1309950934077,38.0426
1309950994077,38.0001
1309951054077,38.0474
1309951114077,38.0662
1309951174077,38.1501
1309951234077,38.1189
1309951294077,38.0682
1309951354077,38.2412
1309951414077,38.1897
1309951474077,37.9768
1309951534077,38.1638
1309951594077,38.1091
1309951654077,38.1335
1309951714077,38.1558
1309951774077,38.0958
1309951834077,38.2210
1309951894077,38.2360
1309951954077,38.1136
1309952014077,38.1608
1309952074077,38.1800
1309952134077,38.0734
1309952194077,38.0560
1309952254077,38.2163
1309952314077,38.1018
1309952374077,38.1184
1309952434077,38.0440
1309952494077,37.9756
1309952554077,38.1914
1309952614077,38.2518
1309952674077,38.0969
1309952734077,38.1597
1309952794077,38.2012
1309952854077,38.0171
1309952914077,38.0841
1309952974077,38.1269
1309953034077,38.0111
1309953094077,38.0672
1309953154077,38.0793
1309953214077,37.8316
1309953274077,38.1010
1309953334077,38.1697
1309953394077,38.0954
1309953454077,37.9703
1309953514077,38.0517
1309953574077,38.1525
1309953634086,38.1523
1309953694086,37.9547
1309953754086,38.1022
1309953814086,38.2041
1309953874086,38.1152
1309953934086,38.0823
1309953994086,38.2389
1309954054086,38.0350
1309954114086,38.0033
1309954174086,38.0290
1309954234086,38.0282
1309954294086,38.1230
1309954354086,38.0257
1309954414086,38.0771
1309954474086,37.9612
1309954534086,38.0587
1309954594086,38.1508
1309954654086,37.9653
1309954714086,37.9718
1309954774086,37.9830
1309954834086,38.1040
1309954894086,37.9991
1309954954086,38.1160
1309955014086,37.9994
1309955074086,37.9682
1309955134086,37.9902
1309955194086,38.1110
1309955254086,37.9953
1309955314086,37.9085
1309955374086,37.9673
1309955434086,38.0050
1309955494086,37.9644
1309955554086,37.8707
1309955614086,38.0205
1309955674086,37.8385
1309955734086,38.0628
1309955794086,37.8608
1309955854086,37.9344
1309955914086,38.0483
1309955974086,38.0212
1309956034086,37.9189
1309956094086,38.0300
1309956154086,38.0472
1309956214086,37.9697
1309956274086,37.9547
1309956334086,37.9092
1309956394086,37.9231
1309956454086,37.9948
1309956514086,37.8915
1309956574086,38.0775
1309956634086,38.0647
1309956694086,37.8934
1309956754086,37.9478
1309956814086,37.8616
1309956874086,37.9189
1309956934086,38.0861
1309956994086,38.0493
1309957054086,38.1135
1309957114086,38.1264
1309957174086,37.9856
1309957234095,38.0485
1309957294095,38.0238
1309957354095,38.0727
1309957414095,38.0318
1309957474095,37.9343
1309957534095,38.0500
1309957594095,37.9314
1309957654095,38.0159
1309957714095,37.9513
1309957774095,38.0508
1309957834095,37.9736
1309957894095,38.0156
1309957954095,37.9208
1309958014095,37.8947
1309958074095,37.8467
1309958134095,37.9454
1309958194095,37.9217
1309958254095,37.9439
1309958314095,37.8846
1309958374095,37.7774
1309958434095,37.8770
1309958494095,37.8261
1309958554095,37.9045
1309958614095,37.9727
1309958674095,37.9110
1309958734095,37.8834
1309958794095,37.8673
1309958854095,37.8372
1309958914095,37.8167
1309958974095,37.8867
1309959034095,37.9009
1309959094095,37.8688
1309959154095,37.9042
1309959214095,37.9226
1309959274095,37.9010
1309959334095,37.9640
1309959394095,37.9758
1309959454095,37.8335
1309959514095,37.8673
1309959574095,37.7768
1309959634095,37.8441
1309959694095,37.9022
1309959754095,37.8754
1309959814095,37.8372
1309959874095,37.7911
1309959934095,37.8071
1309959994095,37.8270
1309960054095,37.8525
1309960114095,37.7823
1309960174095,37.8441
1309960234095,37.8680
1309960294095,37.8182
1309960354095,37.8903
1309960414095,37.8912
1309960474095,37.8868
1309960534095,37.7456
1309960594095,37.8380
1309960654095,37.8870
1309960714095,37.8021
1309960774095,37.8089
1309960834104,38.1297
1309960894104,37.8602
1309960954104,37.9178
1309961014104,37.8188
1309961074104,37.8683
1309961134104,37.7257
1309961194104,37.8313
1309961254104,37.9150
1309961314104,37.7487
1309961374104,37.7945
1309961434104,37.7946
1309961494104,37.7388
1309961554104,37.9397
1309961614104,37.8425
1309961674104,37.8410
1309961734104,37.8517
1309961794104,37.8607
1309961854104,37.8611
1309961914104,37.8086
1309961974104,37.8783
1309962034104,37.7365
1309962094104,37.9295
1309962154104,37.9469
1309962214104,37.9196
1309962274104,37.7524
1309962334104,37.8291
1309962394104,37.9918
1309962454104,37.8298
1309962514104,37.9066
1309962574104,37.8292
1309962634104,37.8664
1309962694104,37.9401
1309962754104,37.9108
1309962814104,37.8861
1309962874104,37.8926
1309962934104,37.9038
1309962994104,37.9287
1309963054104,37.7890
1309963114104,37.8724
1309963174104,37.8175
1309963234104,37.8674
1309963294104,37.9414
1309963354104,37.9881
1309963414104,37.9242
1309963474104,37.9356
1309963534104,37.8324
1309963594104,37.8029
1309963654104,37.8649
1309963714104,37.9092
1309963774104,37.8983
1309963834104,37.8372
1309963894104,37.8035
1309963954104,37.8777
1309964014104,37.9835
1309964074104,37.8458
1309964134104,37.8671
1309964194104,37.9401
1309964254104,37.9082
1309964314104,37.8781
1309964374104,37.9902
1309964434114,37.9171
1309964494114,37.9020
1309964554114,37.8717
1309964614114,37.8033
1309964674114,37.8923
1309964734114,37.8692
1309964794114,37.9907
1309964854114,37.9538
1309964914114,37.9710
1309964974114,37.9498
1309965034114,37.9371
1309965094114,37.8807
1309965154114,37.8857
1309965214114,37.9441
1309965274114,38.0482
1309965334114,37.9143
1309965394114,37.8592
1309965454114,37.9145
1309965514114,37.9767
1309965574114,37.9902
1309965634114,37.9171
1309965694114,37.9719
1309965754114,37.9741
1309965814114,37.9244
1309965874114,37.8910
1309965934114,37.7981
1309965994114,37.9503
1309966054114,37.8687
1309966114114,37.7955
1309966174114,37.9750
1309966234114,37.9047
1309966294114,37.9440
1309966354114,37.9717
1309966414114,37.9160
1309966474114,37.9506
1309966534114,37.7939
1309966594114,37.9356
1309966654114,37.8705
1309966714114,37.8852
1309966774114,37.8975
1309966834114,38.0363
1309966894114,37.9998
1309966954114,38.0421
1309967014114,37.9542
1309967074114,38.0144
1309967134114,37.9635
1309967194114,37.8749
1309967254114,37.9218
1309967314114,38.0119
1309967374114,38.0215
1309967434114,38.0374
1309967494114,37.9642
1309967554114,37.8815
1309967614114,38.0248
1309967674114,37.9350
1309967734114,38.1276
1309967794114,37.9245
1309967854114,37.9994
1309967914114,38.0399
1309967974114,38.0092
1309968034123,37.8703
1309968094123,38.0672
1309968154123,38.0676
1309968214123,37.9831
1309968274123,37.9809
1309968334123,38.0606
1309968394123,37.9173
1309968454123,38.0520
1309968514123,38.0391
1309968574123,38.1253
1309968634123,38.0627
1309968694123,38.0058
1309968754123,37.9886
1309968814123,37.8010
1309968874123,38.0922
1309968934123,38.0213
1309968994123,38.1265
1309969054123,38.0642
1309969114123,38.0154
1309969174123,38.0954
1309969234123,38.0270
1309969294123,38.0391
1309969354123,37.9632
1309969414123,38.2021
1309969474123,37.9709
1309969534123,38.0850
1309969594123,38.1534
1309969654123,37.9722
1309969714123,38.0974
1309969774123,38.1973
1309969834123,38.1119
1309969894123,38.2034
1309969954123,38.0918
1309970014123,38.1279
1309970074123,38.0552
1309970134123,38.0380
1309970194123,38.0703
1309970254123,38.0641
1309970314123,38.0820
1309970374123,38.0738
1309970434123,38.2296
1309970494123,38.0363
1309970554123,38.0425
1309970614123,37.9702
1309970674123,38.2081
1309970734123,38.1262
1309970794123,38.0623
1309970854123,38.1917
1309970914123,38.1219
1309970974123,37.9615
1309971034123,38.1769
1309971094123,38.0489
1309971154123,38.1437
1309971214123,38.0029
1309971274123,38.0198
1309971334123,38.1250
1309971394123,38.1344
1309971454123,38.0693
1309971514123,38.0812
1309971574123,38.1691
1309971634133,38.1451
1309971694133,38.0032
1309971754133,37.9760
1309971814133,38.1876
1309971874133,38.1820
1309971934133,38.1069
1309971994133,38.0413
1309972054133,38.1741
1309972114133,38.0998
1309972174133,38.0096
1309972234133,38.2939
1309972294133,37.9233
1309972834133,38.0643
1309972894133,37.8548
1309972954133,38.2063
1309973014133,38.0746
1309973074133,38.1168
1309973134133,38.1520
1309973194133,38.1375
1309973254133,38.1079
1309973314133,38.0923
1309973374133,38.1760
1309973434133,38.1296
1309973494133,38.1284
1309973554133,38.0249
1309973614133,38.1528
1309973674133,38.1969
1309973734133,38.1005
1309973794133,38.0254
1309973854133,38.1147
1309973914133,38.1420
1309973974133,38.1284
1309974034133,38.1119
1309974094133,38.0302
1309974154133,38.1833
1309974214133,38.1644
1309974274133,38.1173
1309974334133,38.1287
1309974394133,38.1169
1309974454133,38.0909
1309974514133,38.0535
1309974574133,38.1209
1309974634133,38.1643
1309974694133,38.3094
1309974754133,38.0660
1309974814133,38.0402
1309974874133,38.0222
1309974934133,38.0275
1309974994133,38.1313
1309975054133,38.1446
1309975114133,38.1297
1309975174133,38.1213
1309975234144,37.9825
1309975294144,38.0219
1309975354144,37.9705
1309975414144,38.0027
1309975474144,38.1326
1309975534144,38.0484
1309975594144,38.0219
1309975654144,38.0586
1309975714144,38.1725
1309975774144,38.0550
1309975834144,38.0828
1309975894144,38.1048
1309975954144,38.1018
1309976014144,38.0787
1309976074144,38.0243
1309976134144,38.0069
1309976194144,38.1060
1309976254144,37.9925